Regional Weather Roundup
Issued by NWS Northern Indiana

Home | Current Version | Previous Version | Text Only | Print | Product List | Glossary On
Versions: 1 2 3 4 5 6 7 8 9 10 11 12 13 14 15 16 17 18 19 20 21 22 23 24 25 26 27 28 29 30 31 32 33 34 35 36 37 38 39 40 41 42 43 44 45 46 47 48 49 50
000
ASUS43 KIWX 242110
RWRIWX

KIWX WEATHER ROUNDUP
NATIONAL WEATHER SERVICE NORTHERN INDIANA
500 PM EDT THU JUL 24 2014

NOTE: "FAIR" INDICATES FEW OR NO CLOUDS BELOW 12,000 FEET WITH NO
SIGNIFICANT WEATHER AND/OR OBSTRUCTIONS TO VISIBILITY.

* THESE STATIONS ARE NOT UNDER NWS QUALITY CONTROL. THEY ALSO MAY NOT
  REPORT WEATHER SUCH AS PRECIPITATION OR FOG.

INZ001>027-242200-
NORTHERN INDIANA

CITY           SKY/WX    TMP DP  RH WIND       PRES   REMARKS
GARY*          MOSUNNY   72  55  56 NE12      30.13F
VALPARAISO     SUNNY     72  54  53 NE7       30.11F
MICHIGAN CITY* SUNNY     68  50  52 N9        30.11F
LAPORTE*       SUNNY     70  53  54 NW9       30.11F
KNOX*          PTSUNNY   72  54  52 N9        30.08F
SOUTH BEND     MOSUNNY   74  52  46 NW12      30.09F
GOSHEN         MOSUNNY   74  51  44 MISG      30.08F
MONTICELLO*    MOSUNNY   74  55  50 NE6       30.07F
LOGANSPORT*    PTSUNNY   73  52  46 N6        30.08F
ROCHESTER*     MOSUNNY   75  52  43 NE5       30.09F
WARSAW*        MOSUNNY   72  52  49 NW6       30.09F
ANGOLA*        SUNNY     75  50  41 E6        30.09S
FORT WAYNE     PTSUNNY   75  51  43 E10       30.08F
HUNTINGTON*    MOSUNNY   75  50  41 CALM      30.07F
PERU/GRISSOM   PTSUNNY   73  54  51 NW6       30.08F
MARION*        CLOUDY    74  50  43 E6        30.08F

$$
INZ028>050-242200-
CENTRAL INDIANA

CITY           SKY/WX    TMP DP  RH WIND       PRES   REMARKS
LAFAYETTE      PTSUNNY   75  52  44 E6        30.07F
KOKOMO*        MOSUNNY   75  54  46 NE8       30.08F
MUNCIE*        PTSUNNY   72  50  45 NE9       30.09S
INDIANAPOLIS   MOSUNNY   76  51  41 N13       30.06F

$$
MIZ043>046-050>051-056>058-064>065-071>073-077>080-242200-
SOUTHWEST LOWER MICHIGAN

CITY           SKY/WX    TMP DP  RH WIND       PRES   REMARKS
BATTLE CREEK   MOSUNNY   73  48  41 NE7       30.09F
BENTON HARBOR  SUNNY     67  51  56 VRB7      30.11F
COLDWATER*     MOSUNNY   74  49  41 NE6       30.09F
HILLSDALE*     SUNNY     73  48  40 CALM      30.09F
HOLLAND        SUNNY     71  51  49 NW9       30.11F
GRAND RAPIDS   MOSUNNY   75  50  41 CALM      30.08F
KALAMAZOO      MOSUNNY   73  48  41 CALM      30.09F
STURGIS*       MOSUNNY   73  52  46 CALM      30.08F
THREE RIVERS*  FAIR      73  52  46 NW5       30.09F

$$
OHZ001>008-015>018-024>025-242200-
NORTHWEST OHIO

CITY           SKY/WX    TMP DP  RH WIND       PRES   REMARKS
WAUSEON*       PTSUNNY   75  50  41 E9        30.07F
DEFIANCE       MOSUNNY   76  49  38 E8        30.07F
FINDLAY        MOSUNNY   74  49  41 NE12G18   30.07F
TOLEDO EXPRESS PTSUNNY   74  49  41 E6        30.07F
TOLEDO METCALF SUNNY     74  49  41 NE10      30.08F
LIMA           PTSUNNY   72  53  51 NE9       30.08F

$$
&&


USA.gov is the U.S. government's official web portal to all federal, state and local government web resources and services.